Regional Weather Roundup
Issued by NWS

Home | Current Version | Previous Version | Text Only | Print | Product List | Glossary On
Versions: 1 2 3 4 5 6 7 8 9 10 11 12 13 14 15 16 17 18 19 20 21 22 23 24 25 26 27 28 29 30 31 32 33 34 35 36 37 38 39 40 41 42 43 44 45 46 47 48 49 50
000
ASUS43 KDMX 181906
RWRIA

WEATHER ROUNDUP FOR IOWA
NATIONAL WEATHER SERVICE DES MOINES IA
200 PM CDT WED OCT 18 2017

NOTE: "FAIR" INDICATES FEW OR NO CLOUDS BELOW 12,000 FEET WITH NO
SIGNIFICANT WEATHER AND/OR OBSTRUCTIONS TO VISIBILITY.

* - THESE STATIONS ARE NOT NWS STATIONS...THUS NOT UNDER NWS
QUALITY CONTROL.  THEY ALSO DO NOT REPORT WEATHER SUCH
AS PRECIPITATION OR FOG.

IAZ001>003-012>014-020>022-031>034-043>046-182000-
   NORTHWEST IOWA

CITY           SKY/WX    TMP DP  RH WIND       PRES   REMARKS
CARROLL *      SUNNY     84  59  42 SW16      29.90S HX  84
CHEROKEE *     SUNNY     68  47  46 NW6       29.92S
DENISON *      SUNNY     73  48  40 SW14      29.92S
LE MARS *      SUNNY     72  43  35 N12       29.92S
ORANGE CITY *  SUNNY     72  45  37 NE9G18    29.93S
SHELDON *      SUNNY     72  39  30 N14G21    29.91F
SIOUX CITY     SUNNY     71  47  42 N9        29.92S
SPENCER        SUNNY     70  43  37 NW10      29.92R
STORM LAKE *   SUNNY     68  45  42 NW12G17   29.92S
$$

IAZ055>058-069>071-079>083-090>094-182000-
   SOUTHWEST IOWA

CITY           SKY/WX    TMP DP  RH WIND       PRES   REMARKS
ATLANTIC *     SUNNY     70  48  46 S17       29.93S
AUDUBON *      SUNNY     72  48  43 SW13G18   29.94R
CLARINDA *     MOSUNNY   72  48  43 SW17G23   29.96S
COUNCIL BLFS * SUNNY     70  50  49 S10       29.93S
CRESTON *      SUNNY     72  48  43 S18       29.95S
HARLAN  *      SUNNY     72  48  43 S14       29.96S
LAMONI         SUNNY     71  49  45 S17G26    29.96F
RED OAK *      MOSUNNY   72  50  46 SW14      29.94S
SHENANDOAH *   MOSUNNY   70  48  46 S9G18     29.95R
$$

IAZ047>049-059>061-072>074-084-182000-
   CENTRAL IOWA

CITY           SKY/WX    TMP DP  RH WIND       PRES   REMARKS
AMES           MOSUNNY   72  49  44 SW13G24   29.92F
ANKENY *       PTSUNNY   72  48  43 S15       29.94F
BOONE *        SUNNY     73  46  38 S14       29.90F
CHARITON *     SUNNY     72  46  40 SW16G23   29.95F
DES MOINES     PTSUNNY   73  49  42 S15       29.92F
GRINNELL*      SUNNY     72  46  39 S15       29.96F
KNOXVILLE *    SUNNY     73  46  38 S14G20    29.94F
MARSHALLTOWN   SUNNY     72  49  44 S14G24    29.92F
NEWTON *       SUNNY     72  46  40 S16G22    29.94F
PELLA *        SUNNY     73  47  38 S13G18    29.96F
PERRY *          N/A     75  42  30 S10       29.92S
$$

IAZ004>006-015-016-023>025-035-036-182000-
   NORTH CENTRAL IOWA

CITY           SKY/WX    TMP DP  RH WIND       PRES   REMARKS
ALGONA *       SUNNY     73  50  43 W9G16     29.90F
CLARION *      SUNNY     72  48  43 SW14G23   29.91S
ESTHERVILLE    MOSUNNY   67  44  43 NW9       29.91R
FORT DODGE *   SUNNY     73  49  42 SW14      29.91S
MASON CITY     SUNNY     73  48  41 SW17      29.91R
FOREST CITY *    N/A     70  48  46 W10G20    29.90F
WEBSTER CITY * SUNNY     73  46  38 SW14      29.89S
IOWA FALLS *     N/A     72  47  41 S18G25    29.92F
$$

IAZ007>011-017>019-026>030-037>042-050>054-066-182000-
   NORTHEAST IOWA

CITY           SKY/WX    TMP DP  RH WIND       PRES   REMARKS
CEDAR RAPIDS   SUNNY     70  45  40 S16       29.96F
CHARLES CITY * SUNNY     73  46  38 S14G24    29.90S
CLINTON *      SUNNY     72  47  40 S20G25    30.02F
DECORAH *      SUNNY     73  46  38 S14G21    29.88F
DUBUQUE        SUNNY     69  46  43 SW21G31   29.97F
MONTICELLO *   SUNNY     73  46  38 S16G24    29.97F
OELWEIN *      SUNNY     73  46  38 S18G28    29.93F
WATERLOO       SUNNY     73  45  36 S18       29.91F
$$

IAZ064-065-067-068-078-182000-
   EAST CENTRAL IOWA

CITY           SKY/WX    TMP DP  RH WIND       PRES   REMARKS
DAVENPORT      SUNNY     70  44  39 S16G25    30.04F
IOWA CITY      SUNNY     74  46  36 S16       30.00F
MUSCATINE *    SUNNY     73  45  35 SW20G26   30.00F
QUAD CITIES    SUNNY     72  44  36 S16       30.02F
$$

IAZ062-063-075>077-085>089-095>099-182000-
   SOUTHEAST IOWA

CITY           SKY/WX    TMP DP  RH WIND       PRES   REMARKS
BURLINGTON     SUNNY     72  47  40 S16G24    30.03F
FAIRFIELD *    SUNNY     72  45  37 S15G24    29.99F
FORT MADISON * SUNNY     72  48  43 S8        30.05F
KEOKUK *       SUNNY     72  46  40 S14       30.04F
OSKALOOSA *      N/A     73  45  37 S17G24    29.98F
OTTUMWA        SUNNY     73  47  39 S17G26    29.98F
WASHINGTON *   SUNNY     72  46  40 S17       30.01F
$$

ABBREVIATIONS USED IN REMARKS
   TC - TEMPERATURES IN CELSIUS
  WCI - WIND CHILL INDEX
   HX - HEAT INDEX
  VSB - VISIBILITY
$$





USA.gov is the U.S. government's official web portal to all federal, state and local government web resources and services.